CAPE
9 2 5 5 5 5 4 5 7 6 7 1 1 6 5 6 0 0 0 0 0 0 0 0 0 0 0 0 0 0 0 0 0 0 0 0 0 0 1 0 0 15 1311 1780 1127
6 7 10 10 7 5 6 5 6 8 7 3 3 4 3 0 0 0 0 0 0 0 0 0 0 0 0 0 0 0 0 0 0 0 0 0 0 10 33 1 4 190 1960 1492 1660
7 6 8 6 7 9 10 7 7 10 10 9 6 5 1 0 0 0 0 0 0 0 0 0 0 0 0 0 0 0 0 0 0 0 0 0 0 74 64 3 0 26 1171 1313 1237
7 7 8 6 11 12 11 8 10 9 8 8 5 3 1 0 0 2 0 0 0 0 0 0 0 0 0 0 0 0 0 0 0 0 0 0 0 0 4 0 1 1 1064 1113 1399
7 7 6 6 8 12 11 9 5 7 8 4 14 11 2 0 0 0 0 0 0 0 0 0 0 0 0 0 0 0 0 0 0 0 0 0 0 0 0 0 6 864 1328 1142 1448
3 4 7 7 6 7 12 10 7 4 6 17 22 27 15 0 0 0 1 0 0 0 2 0 0 0 0 0 0 0 0 0 0 0 0 0 0 0 0 0 19 0 897 1205 1370
5 5 5 10 5 6 11 13 7 5 5 11 24 36 21 0 0 0 0 0 0 0 0 0 5 1 0 0 0 0 0 0 0 0 0 0 0 0 0 0 0 0 204 676 1312
7 5 8 8 8 9 6 4 1 4 5 17 20 27 4 0 0 0 0 0 0 0 0 2 0 0 0 0 0 0 0 0 0 0 0 0 0 0 0 0 0 0 27 341 1241
7 4 9 7 10 8 3 0 0 0 0 13 14 21 3 0 0 0 0 0 0 0 14 23 0 0 11 1 0 0 0 0 0 0 0 0 0 0 0 0 0 0 0 370 852
7 6 7 8 10 5 0 0 0 0 0 4 4 7 0 0 0 0 0 0 0 0 4 12 5 9 15 12 0 0 0 0 0 0 0 0 0 0 0 0 0 0 0 347 584
6 6 7 4 3 3 0 0 1 2 7 2 4 0 4 0 0 0 9 24 26 3 4 16 21 8 12 0 0 0 0 0 0 0 0 0 0 0 0 0 0 0 0 222 452
3 6 3 2 1 2 0 0 1 1 0 0 2 1 3 0 0 1 31 32 83 9 9 20 3 7 10 4 0 0 0 0 0 0 0 0 0 0 0 0 0 0 0 92 328
3 5 2 0 0 0 4 0 0 0 0 0 0 0 0 4 1 6 12 18 69 56 24 11 0 4 0 1 0 0 0 0 0 0 0 0 0 0 0 0 0 0 0 19 60
3 2 0 0 0 0 0 0 1 0 1 0 0 0 0 0 0 3 26 13 102 63 42 22 0 0 0 0 0 0 0 0 0 0 0 0 0 0 0 0 0 0 0 5 0
3 0 0 0 0 8 5 5 0 3 0 0 0 0 0 0 2 1 7 16 22 114 58 10 8 17 0 0 2 0 0 0 0 0 0 0 0 0 0 0 0 0 0 0 1
1 0 0 0 0 1 0 0 1 0 0 0 1 3 2 6 2 2 0 4 6 27 0 22 44 25 0 1 0 0 0 0 0 0 0 0 0 0 0 0 0 0 0 0 0
0 0 0 0 1 0 0 2 1 0 1 2 4 21 10 22 23 6 1 1 0 3 4 24 3 43 30 0 5 0 0 0 0 0 0 0 0 0 0 0 0 0 0 0 0
0 0 0 0 0 0 0 1 2 1 3 3 4 0 1 9 1 13 0 2 7 1 26 52 1 41 14 5 7 0 0 0 0 0 0 0 0 0 0 0 0 0 0 0 0
0 1 7 3 3 0 7 7 0 0 0 0 0 13 10 13 0 5 4 1 10 2 0 34 24 17 57 16 0 0 0 0 0 0 0 0 0 0 0 0 0 0 0 0 0
0 1 2 0 19 26 13 3 2 4 3 1 0 6 7 8 0 3 5 7 73 4 0 56 51 61 13 24 0 0 0 0 0 0 0 0 0 0 0 0 0 0 0 0 0
0 22 0 0 13 0 4 10 1 8 14 0 0 4 4 26 0 2 3 42 33 1 1 4 27 14 3 39 0 0 0 0 0 0 2 0 0 0 0 0 0 0 0 0 0
0 0 0 0 0 13 4 0 3 3 14 0 2 0 3 23 62 11 15 42 3 0 0 84 3 0 8 25 0 0 0 0 0 0 0 0 1 0 0 0 0 241 227 335 463
0 0 0 1 0 4 8 0 4 3 5 2 1 2 3 9 25 21 44 1 1 11 85 140 41 16 48 38 8 0 0 0 0 0 0 0 8 35 277 573 365 204 508 491 359
0 0 0 0 7 12 12 2 5 5 3 5 2 5 4 2 23 30 2 4 1 177 52 23 45 0 7 0 0 0 0 0 0 0 0 64 297 421 427 305 322 208 191 162 162
0 0 0 0 0 2 18 11 6 14 0 1 1 4 5 2 0 68 7 1 77 21 4 0 0 6 60 0 0 0 0 0 0 0 8 96 142 298 142 180 127 84 141 74 113
0 0 0 0 7 6 9 14 7 5 0 0 1 0 3 3 3 100 5 0 25 3 0 0 0 82 18 0 0 0 0 0 0 0 24 38 312 171 82 253 382 307 147 31 1
0 0 1 0 0 0 2 11 0 2 1 2 4 1 0 2 3 6 139 100 22 0 0 0 3 4 26 0 0 0 0 0 0 0 2 224 238 88 113 266 133 24 1 0 0
CIN
0 0 0 0 0 0 0 0 0 0 0 0 0 0 0 0 0 0 0 0 0 0 0 0 0 0 0 0 0 0 0 0 0 0 0 0 0 0 -21 0 0 -23 -32 -29 -50
0 0 0 -1 -1 -1 -1 -1 0 0 0 0 0 0 0 0 0 0 0 0 0 0 0 0 0 0 0 0 0 0 0 0 0 0 0 0 0 -4 -44 -6 -12 -22 -61 -118 -31
0 0 0 0 0 0 -1 -1 0 0 0 0 -1 0 0 0 0 0 0 0 0 0 0 0 0 0 0 0 0 0 0 0 0 0 0 0 0 -8 -5 -8 0 -4 -6 -79 -76
0 0 -1 0 -1 -1 -1 0 0 0 0 0 0 0 0 0 0 -17 0 0 0 0 0 0 0 0 0 0 0 0 0 0 0 0 0 0 0 0 -6 0 -1 0 -14 -19 -15
0 0 0 0 0 -1 -2 -2 0 0 0 0 0 0 -1 0 0 0 0 0 0 0 0 0 0 0 0 0 0 0 0 0 0 0 0 0 0 0 0 0 -14 -18 -15 -16 -2
-1 0 0 0 0 0 -1 0 -1 0 0 0 0 0 0 0 0 0 -2 0 0 0 -1 0 0 0 0 0 0 0 0 0 0 0 0 0 0 0 0 0 -13 0 -4 -3 -2
-1 0 0 0 0 0 0 -1 -1 0 0 0 0 0 0 0 0 0 0 0 0 0 0 0 -3 -10 0 0 0 0 0 0 0 0 0 0 0 0 0 0 0 0 -4 -4 -2
0 0 -1 0 0 0 0 0 0 0 0 0 0 0 0 0 0 0 0 0 0 0 0 -2 -8 0 0 0 0 0 0 0 0 0 0 0 0 0 0 0 0 0 -1 -4 -3
0 0 -1 0 0 0 0 0 0 0 0 0 0 0 0 0 0 0 0 0 0 0 -3 -2 0 -2 -3 -4 0 0 0 0 0 0 0 0 0 0 0 0 0 0 0 -3 -3
0 0 0 -1 0 0 0 0 0 0 0 -1 -1 -1 0 0 0 0 0 0 0 0 -7 -4 -9 -5 -2 -2 0 0 0 0 0 0 0 0 0 0 0 0 0 0 0 -2 -3
0 0 0 0 0 0 0 0 -1 -2 0 -2 -1 0 -5 0 0 0 -2 -2 -2 -4 -6 -4 -7 -5 -2 0 0 0 0 0 0 0 0 0 0 0 0 0 0 0 0 -2 -1
0 0 0 0 0 0 0 -5 0 0 0 0 -1 -2 -2 0 0 -3 -2 -2 -2 -6 -5 -6 -2 -4 -6 -3 0 0 0 0 0 0 0 0 0 0 0 0 0 0 0 -10 -2
0 0 0 0 0 0 -2 0 0 0 0 0 0 0 0 -2 -1 -5 -5 -3 -17 -12 -5 -8 0 -5 0 -11 -2 0 0 0 0 0 0 0 0 0 0 0 0 0 0 -57 -51
0 0 0 0 0 -1 -4 0 -1 0 0 0 0 0 0 0 0 -3 -3 -6 -5 -5 -12 -6 0 -2 -3 -3 -6 0 0 0 0 0 0 0 0 0 0 0 0 0 0 -1 0
0 0 0 0 0 -1 -1 -2 0 -1 0 0 0 0 -1 0 -3 -8 -15 -3 -15 -4 -12 -13 -5 -9 0 -3 -10 0 0 0 0 0 0 0 0 0 0 0 0 0 0 0 -4
0 0 0 0 -9 -4 0 0 0 0 0 0 -1 -3 -3 -2 -5 -2 0 -12 -8 -16 0 -71 -31 -8 -3 -9 0 0 0 0 0 0 0 0 0 0 0 0 0 0 0 0 0
0 0 0 0 0 0 0 0 0 0 -1 0 -1 -14 -3 -3 -8 -3 -1 -4 -2 -4 -38 -39 -40 -10 -13 -2 -13 0 0 0 0 0 0 0 0 0 0 0 0 0 0 0 0
0 0 0 0 0 0 -1 0 0 -1 0 -1 0 0 -2 -1 -1 -1 0 -4 -4 -25 -25 -6 -14 -3 -43 -40 -16 0 0 0 0 0 0 0 0 0 0 0 0 0 0 0 0
0 -1 -11 -2 -10 0 -2 0 0 0 0 0 0 -2 -1 -2 0 0 0 -1 -4 -1 0 -19 -12 -6 -22 -65 0 0 -13 0 0 0 0 0 0 0 0 0 0 0 0 0 0
0 -5 -3 0 -10 -17 -4 0 0 0 0 0 0 -14 -1 -9 0 0 0 -20 -13 -8 0 -12 -7 -33 -116 -48 0 0 0 0 0 0 0 0 -2 0 0 0 0 0 0 0 0
0 -8 0 0 -8 0 -1 0 0 0 0 0 0 -1 -1 0 0 -2 -4 -6 -36 -4 -82 -6 -13 -76 -23 -13 0 0 0 0 0 0 -1 0 0 0 0 0 0 0 0 0 0
0 0 0 0 0 -1 -2 0 0 0 0 0 0 0 0 0 -7 -74 -33 -13 -3 0 -3 -10 -46 0 -81 -44 0 0 0 0 0 0 0 0 -3 0 0 0 0 -60 -56 -37 -36
0 0 0 -1 -1 -1 -5 -6 0 0 0 0 0 0 0 0 -1 -37 -28 -20 -27 -4 -5 -8 -8 -23 -11 -32 -20 0 0 0 0 0 0 0 -1 -16 -25 -40 -72 -99 -68 -54 -57
0 0 0 0 -4 -3 -3 -10 0 0 0 0 0 0 0 0 0 -5 -1 -26 0 -34 -91 -67 -17 0 -12 0 0 0 0 0 0 0 0 -4 -8 -27 -62 -94 -114 -138 -73 -70 -50
0 0 0 0 0 -9 -3 -1 0 0 0 0 0 0 0 0 0 -1 -1 -2 -28 -95 -58 0 0 -57 -4 0 0 0 0 0 0 0 -45 -2 -13 -36 -95 -118 -136 -92 -36 -50 -40
0 0 0 0 -2 -5 -6 -2 0 -1 -1 0 0 0 -4 0 0 -2 -22 -2 -15 -28 0 0 0 -47 -36 0 0 0 0 0 0 0 -15 -12 -7 -120 -155 -76 -31 -4 -23 -57 -8
0 0 -1 0 0 -1 -2 -1 -3 -3 -6 -3 -2 0 0 0 0 -23 -2 -5 -19 0 0 0 -25 -206 -8 0 0 0 0 0 0 0 -2 -13 -38 -79 -86 -24 -2 -37 -5 0 0
Wind_Speed
37 37 37 37 35 35 35 34 34 35 36 37 38 39 39 40 41 42 44 37 33 29 30 32 33 32 32 37 37 34 40 47 45 39 45 33 41 32 25 25 13 14 13 6 4
36 36 35 34 34 34 35 35 35 35 34 34 34 34 36 38 42 47 44 44 42 31 35 33 35 33 37 35 38 38 42 48 38 40 43 42 37 24 26 31 13 13 6 11 12
35 35 34 34 34 34 34 32 31 31 30 29 29 31 32 33 40 31 25 28 31 31 33 37 36 38 41 39 39 43 52 41 44 43 42 42 39 13 21 31 26 17 12 6 9
34 35 35 35 35 33 31 29 30 28 27 29 29 26 26 26 32 21 21 21 21 27 34 35 37 41 44 47 41 46 49 47 41 43 42 41 41 35 28 30 24 24 13 10 11
34 35 35 35 34 32 30 29 27 29 35 35 29 25 25 15 18 11 19 22 23 24 29 34 40 41 48 44 42 49 45 45 46 41 42 37 39 33 24 28 20 7 12 15 15
35 35 35 35 34 32 30 27 26 38 37 30 23 19 15 17 20 17 14 19 32 30 31 34 39 41 43 46 47 43 43 41 43 44 39 37 36 28 19 20 13 15 13 13 15
36 36 35 36 35 33 28 26 37 39 35 22 17 14 17 14 21 29 27 21 23 32 39 35 33 43 45 44 44 43 44 44 40 40 40 28 36 32 21 21 15 20 20 21 17
38 36 35 36 34 32 27 20 36 14 16 15 13 13 19 18 14 13 23 28 16 22 33 34 35 42 48 42 43 46 47 46 44 35 38 26 39 32 28 23 28 20 20 21 19
37 37 38 37 33 27 20 16 26 10 14 16 14 11 18 15 8 13 20 21 19 21 26 32 34 38 40 47 47 45 50 51 41 39 32 30 34 31 29 29 27 24 23 18 17
38 39 38 35 30 22 13 20 7 15 12 14 12 14 10 15 17 14 14 10 18 16 31 30 35 41 44 46 53 49 50 48 44 36 36 33 35 33 27 27 26 24 25 18 16
40 40 37 33 27 18 9 28 24 18 11 12 13 7 12 13 16 13 9 15 12 21 40 38 42 51 51 49 46 41 43 44 39 32 33 36 32 30 28 26 25 21 25 21 16
40 39 36 31 22 10 15 22 27 23 19 10 8 12 9 4 9 11 7 11 9 31 35 41 52 46 47 45 48 46 43 44 36 36 32 34 34 32 31 23 24 21 21 21 16
39 38 33 27 10 13 18 27 27 26 16 13 7 6 4 5 5 6 5 4 5 30 35 43 42 42 47 49 49 50 45 38 43 32 29 29 36 30 35 21 23 19 19 18 17
38 35 29 24 18 23 23 24 27 18 17 14 15 17 12 8 6 9 5 9 14 30 34 40 41 44 48 50 48 48 45 35 41 33 36 29 36 36 34 23 24 21 20 15 16
38 32 25 19 14 19 20 24 21 17 18 18 16 16 13 9 12 16 14 13 17 25 27 39 37 42 50 47 48 47 40 35 38 36 27 33 36 31 34 25 26 24 22 17 15
35 27 24 25 19 19 20 23 17 21 18 20 16 15 12 7 8 12 9 16 16 32 29 34 36 40 47 41 45 46 38 33 33 32 40 34 39 33 29 28 21 19 20 18 14
32 23 20 18 27 26 25 24 22 25 21 18 17 13 7 9 4 8 6 13 18 34 30 34 33 37 39 42 42 47 38 39 40 35 42 35 34 37 24 24 25 20 18 17 15
28 20 17 16 21 23 25 27 30 24 19 15 14 13 6 4 8 8 6 12 24 31 26 33 34 38 42 47 41 47 40 40 40 39 37 32 31 35 37 23 21 18 17 15 14
26 20 22 23 20 21 26 29 30 23 18 18 14 17 14 8 15 12 13 15 30 31 27 27 29 33 33 39 44 43 43 33 31 29 27 32 28 24 10 16 19 17 15 15 15
26 24 28 18 20 23 24 27 27 19 17 17 17 17 16 15 13 14 15 18 32 34 33 26 30 33 39 34 42 43 42 40 34 34 32 27 26 20 18 17 16 17 14 12 10
24 23 29 18 21 32 25 24 23 18 17 17 14 16 12 15 14 12 14 15 32 27 33 26 21 35 37 35 41 41 44 36 28 30 28 24 25 16 15 14 11 12 9 8 7
27 31 28 24 31 30 21 21 26 21 18 15 13 12 12 10 17 16 17 14 34 28 33 26 16 30 41 39 40 40 38 35 29 29 21 23 16 13 13 13 13 9 7 6 6
28 30 28 28 33 38 23 24 26 27 19 18 15 8 4 6 11 21 17 25 32 26 29 25 20 27 39 39 43 43 35 36 27 29 22 18 15 8 10 11 10 10 6 5 5
27 32 30 28 28 25 14 21 20 29 18 15 8 3 9 13 13 17 24 22 27 17 17 20 21 28 36 42 44 40 37 32 24 25 25 21 16 11 10 11 8 7 8 7 6
33 31 31 28 28 24 24 15 19 21 13 14 12 9 8 17 15 19 22 26 21 26 22 22 26 37 33 35 38 34 35 26 28 29 20 21 18 14 10 10 9 8 9 9 8
33 32 28 22 25 30 37 23 24 19 11 8 12 7 5 10 12 10 23 24 25 26 27 23 28 29 32 37 36 38 37 28 25 18 13 16 14 9 9 10 11 11 11 10 9
31 28 27 24 28 30 33 27 26 14 11 5 7 5 8 7 9 8 10 13 16 23 30 31 31 21 29 39 38 37 36 24 18 17 13 17 11 10 13 11 11 13 11 10 8
Wind_Direction
356 353 351 349 349 346 343 341 337 332 327 323 317 313 308 304 300 290 280 278 277 277 279 271 265 262 258 250 247 246 247 246 245 246 243 251 245 247 253 249 266 273 294 309 194
358 358 356 355 352 348 344 340 337 335 333 330 327 324 318 311 298 287 284 277 271 273 268 263 259 257 251 249 244 241 244 244 249 250 245 248 249 240 241 244 259 258 287 277 296
1 359 357 354 350 347 344 343 342 338 338 336 335 332 328 324 303 293 304 295 277 264 264 260 259 254 248 245 241 241 242 247 246 246 246 246 249 228 233 243 252 255 254 200 235
1 358 355 353 349 348 346 344 340 339 336 329 329 336 336 329 303 312 324 316 294 269 259 255 252 248 246 241 242 242 243 243 247 247 247 248 244 252 245 247 255 265 241 237 226
360 357 355 352 350 347 345 342 341 333 313 311 326 332 333 325 308 308 329 311 289 274 256 250 247 245 243 244 242 241 242 243 243 246 247 248 248 258 241 248 259 224 241 244 244
359 356 353 352 349 346 343 341 338 303 312 325 331 336 330 305 323 318 308 311 280 269 259 254 248 247 248 243 239 241 243 245 243 243 248 248 243 258 243 243 239 243 238 239 243
358 356 353 350 348 345 343 341 311 305 318 334 335 334 325 298 322 306 305 309 302 267 255 254 256 248 241 242 241 241 240 241 241 239 243 250 241 246 241 236 245 248 254 259 255
358 356 353 350 347 345 343 340 283 331 339 336 335 334 324 329 319 299 294 293 314 287 260 255 258 251 237 241 242 236 237 236 235 240 238 242 240 241 245 245 247 250 253 254 255
359 356 353 349 348 347 344 286 271 341 355 353 352 344 335 352 340 320 296 291 289 293 264 253 250 243 238 233 233 230 230 232 234 236 235 236 242 240 242 244 247 246 248 249 249
359 356 353 353 353 352 330 276 262 3 16 21 7 2 2 355 341 330 318 313 287 278 253 246 242 233 230 226 224 222 227 230 234 224 234 235 242 245 238 237 244 245 247 242 245
360 358 357 358 360 360 4 2 8 15 11 355 351 346 343 14 355 346 352 328 305 266 239 238 232 226 222 225 227 230 229 231 232 233 230 236 237 244 245 238 237 240 243 239 238
1 0 1 1 3 15 32 21 5 3 348 327 259 251 245 331 347 350 18 348 310 248 238 233 228 228 225 227 227 228 228 231 234 237 226 233 238 240 248 229 236 236 240 238 236
2 2 4 5 5 37 34 8 8 4 9 30 39 38 46 175 173 26 46 97 227 242 234 231 230 228 225 226 224 226 227 226 227 227 223 232 237 233 241 231 236 230 237 235 236
3 4 8 14 41 30 26 18 10 25 27 50 45 41 62 87 167 174 99 136 167 243 234 233 230 222 222 223 222 223 226 227 224 221 224 224 234 237 236 233 236 234 234 222 235
5 8 13 28 40 35 27 20 22 44 38 37 43 53 63 115 37 353 180 164 171 243 242 230 226 223 221 222 221 221 224 229 223 226 222 228 237 233 232 229 234 234 236 230 229
7 14 24 44 46 42 32 21 47 37 36 26 36 33 45 96 176 12 128 178 177 221 244 240 235 226 220 224 222 216 223 231 220 223 227 231 233 243 218 222 225 230 228 228 217
10 22 33 45 36 34 34 35 36 30 17 23 15 7 25 40 81 156 143 171 174 223 240 230 230 220 221 217 217 216 219 213 215 219 226 232 228 239 218 221 228 228 218 218 224
13 27 43 46 45 39 35 34 30 25 29 11 10 9 19 71 56 135 112 155 171 206 239 218 222 215 215 217 213 214 215 211 207 217 225 226 233 237 251 217 221 220 221 218 228
17 39 43 38 43 38 32 33 29 25 25 19 19 36 40 87 55 74 155 152 179 169 218 224 221 216 217 218 216 209 214 214 215 222 227 227 231 243 222 206 206 203 210 224 234
28 36 35 33 41 33 38 32 26 27 28 38 42 47 36 52 73 77 121 160 204 182 189 220 218 216 211 216 218 211 210 211 222 220 226 223 222 223 219 219 207 205 208 207 210
35 39 37 40 41 27 37 29 24 24 27 48 52 45 56 57 55 86 104 105 196 168 193 220 220 212 211 212 204 204 212 222 228 230 229 217 224 199 208 210 197 198 193 177 181
33 32 34 40 33 33 34 29 23 23 40 60 64 69 69 60 68 79 126 158 176 171 197 207 228 211 204 209 210 210 211 213 221 227 218 214 220 188 200 215 212 183 186 166 144
29 34 38 38 31 16 34 33 27 30 45 56 63 100 89 95 104 88 129 187 165 195 196 204 209 198 206 214 212 209 213 214 229 227 222 201 197 190 174 155 163 173 186 187 160
29 28 30 33 36 31 17 28 8 36 53 54 78 81 83 106 118 109 121 110 178 218 213 212 206 204 201 200 200 205 207 219 230 225 205 201 187 191 178 177 177 186 190 185 162
32 32 30 27 26 24 347 3 347 27 52 55 57 298 103 99 115 126 120 146 193 194 207 216 205 191 200 195 198 203 203 211 214 225 208 187 200 205 203 201 197 178 164 160 154
30 28 24 20 24 29 339 329 333 337 55 11 43 305 192 138 125 168 136 141 153 189 200 219 199 203 196 197 201 201 205 214 221 229 185 198 192 192 191 184 185 167 156 152 143
29 27 26 24 26 27 6 324 330 340 63 22 354 297 158 204 234 223 220 226 212 209 197 198 201 202 195 196 201 208 206 217 228 244 201 195 188 156 156 180 169 161 163 156 140